This is the latest recevied weather packets stored in our database for station/object K1BES. If no packets are shown the sender has not sent any weather packets the latest 10 day(s).
| Time | Temp. | Humidity | Pressure | Rain* | Wind** | Luminosity | Snow |
|---|---|---|---|---|---|---|---|
| 1777840762 | 25° C | 71% | 1017.3 hPa | 0 mm | - | 291 W/m² | - |
| 1777840459 | 25° C | 71% | 1017.2 hPa | 0 mm | - | 260 W/m² | - |
| 1777840156 | 24.44° C | 73% | 1017.7 hPa | 0 mm | - | 407 W/m² | - |
| 1777839854 | 23.89° C | 74% | 1017.3 hPa | 0 mm | - | 199 W/m² | - |
| 1777839552 | 23.89° C | 73% | 1017.3 hPa | 0 mm | - | 214 W/m² | - |
| 1777839249 | 23.89° C | 73% | 1017.6 hPa | 0 mm | - | 219 W/m² | - |
| 1777838946 | 23.89° C | 74% | 1017.5 hPa | 0 mm | - | 259 W/m² | - |
| 1777838642 | 23.33° C | 75% | 1017.6 hPa | 0 mm | - | 277 W/m² | - |
| 1777838339 | 23.89° C | 73% | 1017.7 hPa | 0 mm | - | 147 W/m² | - |
| 1777838036 | 23.89° C | 75% | 1017.7 hPa | 0 mm | - | 159 W/m² | - |
| 1777837733 | 23.33° C | 75% | 1017.6 hPa | 0 mm | - | 228 W/m² | - |
| 1777837429 | 23.33° C | 74% | 1017.7 hPa | 0 mm | - | 215 W/m² | - |
| 1777837125 | 23.89° C | 74% | 1018.1 hPa | 0 mm | - | 113 W/m² | - |
| 1777836821 | 23.89° C | 74% | 1017.8 hPa | 0 mm | - | 180 W/m² | - |
| 1777836517 | 23.89° C | 75% | 1017.6 hPa | 0 mm | - | 279 W/m² | - |
| 1777836213 | 23.89° C | 74% | 1017.8 hPa | 0 mm | - | 222 W/m² | - |
| 1777835909 | 23.89° C | 74% | 1017.9 hPa | 0 mm | - | 359 W/m² | - |
| 1777835606 | 23.33° C | 75% | 1017.8 hPa | 0 mm | - | 371 W/m² | - |
| 1777835303 | 23.33° C | 74% | 1017.8 hPa | 0 mm | - | 300 W/m² | - |
| 1777835000 | 23.33° C | 76% | 1018.1 hPa | 0 mm | - | 161 W/m² | - |
| 1777834698 | 23.33° C | 75% | 1018.1 hPa | 0 mm | - | 181 W/m² | - |
| 1777834394 | 23.33° C | 75% | 1018.2 hPa | 0 mm | - | 384 W/m² | - |
| 1777834094 | 23.89° C | 73% | 1018.2 hPa | 0 mm | - | 178 W/m² | - |
| 1777833790 | 23.89° C | 75% | 1018.2 hPa | 0 mm | - | 260 W/m² | - |
| 1777833486 | 23.89° C | 74% | 1018.2 hPa | 0 mm | - | 442 W/m² | - |
* Rain latest hour (hover to see other rain measurements)
** Current wind speed in m/s (hover to see current wind gust speed)